MQT25T BIKF-BGGH

Flight info

Callsign MQT25T
Flight time 2h 27m
Altitude 36000
Route SORIR DCT SOPEN DCT SABAG DCT NAPIB DCT INBAN DCT GETDA
Aircraft B738/M-SDE2E3FGHIRWXY/LB1

Departure

Time 2026-04-22 18:16
Airport Keflavik International Airport (BIKF)

Arrival

Time 2026-04-22 20:43
Airport Nuuk International Airport (BGGH)
Time Latitude Longitude Altitude Speed Heading
2026-04-22 17:36 63.99280 -22.62192 139 ft 0 kts 316°
2026-04-22 18:01 63.99279 -22.62189 144 ft 2 kts 316°
2026-04-22 18:01 63.99262 -22.62146 144 ft 4 kts 306°
2026-04-22 18:02 63.99248 -22.62094 141 ft 4 kts 290°
2026-04-22 18:02 63.99243 -22.62037 141 ft 4 kts 258°
2026-04-22 18:02 63.99253 -22.61999 141 ft 3 kts 186°
2026-04-22 18:02 63.99256 -22.61998 141 ft 0 kts 181°
2026-04-22 18:08 63.99255 -22.61998 141 ft 1 kts 181°
2026-04-22 18:08 63.99245 -22.61997 141 ft 4 kts 173°
2026-04-22 18:08 63.99196 -22.61981 141 ft 8 kts 158°
2026-04-22 18:09 63.99174 -22.61836 143 ft 11 kts 91°
2026-04-22 18:09 63.99174 -22.61660 147 ft 11 kts 90°
2026-04-22 18:09 63.99174 -22.61459 151 ft 15 kts 90°
2026-04-22 18:09 63.99173 -22.61191 157 ft 18 kts 91°
2026-04-22 18:10 63.99167 -22.61005 161 ft 10 kts 116°
2026-04-22 18:10 63.99083 -22.60937 166 ft 17 kts 178°
2026-04-22 18:10 63.98958 -22.60940 169 ft 20 kts 180°
2026-04-22 18:10 63.98798 -22.60941 165 ft 26 kts 180°
2026-04-22 18:11 63.98608 -22.60940 167 ft 27 kts 179°
2026-04-22 18:11 63.98429 -22.60940 169 ft 25 kts 180°
2026-04-22 18:11 63.98263 -22.60937 164 ft 23 kts 180°
2026-04-22 18:11 63.98106 -22.60944 166 ft 22 kts 179°
2026-04-22 18:12 63.98006 -22.60939 168 ft 22 kts 179°
2026-04-22 18:12 63.97858 -22.60939 169 ft 21 kts 180°
2026-04-22 18:12 63.97715 -22.60943 168 ft 20 kts 180°
2026-04-22 18:12 63.97575 -22.60944 166 ft 20 kts 180°
2026-04-22 18:13 63.97437 -22.60940 164 ft 20 kts 181°
2026-04-22 18:13 63.97291 -22.60942 160 ft 22 kts 178°
2026-04-22 18:13 63.97124 -22.60937 154 ft 26 kts 180°
2026-04-22 18:13 63.96932 -22.60938 147 ft 29 kts 180°
2026-04-22 18:14 63.96719 -22.60943 139 ft 32 kts 180°
2026-04-22 18:14 63.96563 -22.60943 134 ft 11 kts 180°
2026-04-22 18:14 63.96483 -22.60908 134 ft 12 kts 142°
2026-04-22 18:14 63.96462 -22.60737 139 ft 11 kts 89°
2026-04-22 18:15 63.96463 -22.60674 141 ft 3 kts 88°
2026-04-22 18:15 63.96484 -22.60575 144 ft 11 kts 36°
2026-04-22 18:15 63.96608 -22.60542 148 ft 45 kts
2026-04-22 18:15 63.97215 -22.60545 165 ft 127 kts
2026-04-22 18:16 63.98307 -22.60515 395 ft 180 kts
2026-04-22 18:16 63.99674 -22.60342 1008 ft 211 kts
2026-04-22 18:16 64.01189 -22.60348 1980 ft 216 kts 355°
2026-04-22 18:16 64.02703 -22.60448 3048 ft 219 kts 356°
2026-04-22 18:17 64.04268 -22.60696 3487 ft 236 kts 343°
2026-04-22 18:17 64.05741 -22.62400 4044 ft 246 kts 321°
2026-04-22 18:17 64.06882 -22.65429 4816 ft 253 kts 298°
2026-04-22 18:17 64.07490 -22.69187 5594 ft 258 kts 288°
2026-04-22 18:18 64.07994 -22.73165 6377 ft 263 kts 287°
2026-04-22 18:18 64.08491 -22.77218 7155 ft 267 kts 286°
2026-04-22 18:18 64.08996 -22.81348 7871 ft 272 kts 286°
2026-04-22 18:18 64.09508 -22.85521 8683 ft 272 kts 287°
2026-04-22 18:19 64.10023 -22.89705 9472 ft 276 kts 287°
2026-04-22 18:19 64.10553 -22.93993 10157 ft 282 kts 287°
2026-04-22 18:19 64.11091 -22.98341 10827 ft 289 kts 287°
2026-04-22 18:19 64.11660 -23.02937 11022 ft 312 kts 286°
2026-04-22 18:20 64.12271 -23.07883 11235 ft 333 kts 287°
2026-04-22 18:20 64.12908 -23.13059 11746 ft 342 kts 286°
2026-04-22 18:20 64.13556 -23.18338 12412 ft 346 kts 286°
2026-04-22 18:20 64.14210 -23.23683 13112 ft 350 kts 286°
2026-04-22 18:21 64.14869 -23.29088 13761 ft 355 kts 286°
2026-04-22 18:21 64.15534 -23.34560 14424 ft 359 kts 285°
2026-04-22 18:21 64.16208 -23.40110 15047 ft 363 kts 285°
2026-04-22 18:21 64.16885 -23.45710 15636 ft 367 kts 285°
2026-04-22 18:22 64.17570 -23.51400 16173 ft 373 kts 285°
2026-04-22 18:22 64.18286 -23.57144 16830 ft 374 kts 289°
2026-04-22 18:22 64.19253 -23.62690 17520 ft 376 kts 294°
2026-04-22 18:22 64.20369 -23.68149 18072 ft 381 kts 296°
2026-04-22 18:23 64.21536 -23.73645 18633 ft 385 kts 296°
2026-04-22 18:23 64.22710 -23.79209 19148 ft 389 kts 296°
2026-04-22 18:23 64.23879 -23.84851 19652 ft 393 kts 295°
2026-04-22 18:24 64.26203 -23.96348 20633 ft 400 kts 295°
2026-04-22 18:24 64.27365 -24.02194 21112 ft 404 kts 295°
2026-04-22 18:24 64.29691 -24.13988 22061 ft 411 kts 295°
2026-04-22 18:25 64.30872 -24.20005 22518 ft 414 kts 295°
2026-04-22 18:25 64.32061 -24.26080 22973 ft 418 kts 295°
2026-04-22 18:25 64.33257 -24.32211 23424 ft 421 kts 295°
2026-04-22 18:26 64.35675 -24.44657 24264 ft 428 kts 295°
2026-04-22 18:26 64.36893 -24.50955 24639 ft 431 kts 295°
2026-04-22 18:26 64.38116 -24.57290 25037 ft 433 kts 295°
2026-04-22 18:26 64.39339 -24.63651 25428 ft 435 kts 295°
2026-04-22 18:27 64.40561 -24.70059 25801 ft 437 kts 294°
2026-04-22 18:27 64.41640 -24.76654 26204 ft 438 kts 289°
2026-04-22 18:27 64.42587 -24.83374 26587 ft 440 kts 288°
2026-04-22 18:27 64.43489 -24.90164 26921 ft 443 kts 288°
2026-04-22 18:28 64.44389 -24.97007 27250 ft 446 kts 288°
2026-04-22 18:28 64.45304 -25.03894 27552 ft 448 kts 288°
2026-04-22 18:28 64.46234 -25.10805 27903 ft 450 kts 288°
2026-04-22 18:28 64.47174 -25.17718 28269 ft 451 kts 288°
2026-04-22 18:29 64.48124 -25.24666 28570 ft 453 kts 288°
2026-04-22 18:29 64.49080 -25.31657 28875 ft 456 kts 288°
2026-04-22 18:29 64.50038 -25.38680 29196 ft 457 kts 288°
2026-04-22 18:29 64.50997 -25.45736 29503 ft 459 kts 288°
2026-04-22 18:30 64.51956 -25.52827 29797 ft 461 kts 288°
2026-04-22 18:30 64.53876 -25.67127 30336 ft 466 kts 288°
2026-04-22 18:30 64.54835 -25.74319 30627 ft 467 kts 288°
2026-04-22 18:31 64.55791 -25.81523 30957 ft 466 kts 288°
2026-04-22 18:31 64.56741 -25.88710 31287 ft 465 kts 288°
2026-04-22 18:31 64.57675 -25.95812 31560 ft 465 kts 288°
2026-04-22 18:31 64.58619 -26.03014 31811 ft 466 kts 288°
2026-04-22 18:32 64.59562 -26.10242 32066 ft 466 kts 288°
2026-04-22 18:32 64.60498 -26.17451 32445 ft 463 kts 288°
2026-04-22 18:32 64.61425 -26.24624 32777 ft 462 kts 288°
2026-04-22 18:32 64.62350 -26.31804 33004 ft 464 kts 288°
2026-04-22 18:33 64.63275 -26.39018 33228 ft 465 kts 288°
2026-04-22 18:33 64.64196 -26.46243 33501 ft 464 kts 288°
2026-04-22 18:33 64.65113 -26.53462 33783 ft 464 kts 288°
2026-04-22 18:33 64.66024 -26.60671 34044 ft 464 kts 288°
2026-04-22 18:34 64.66935 -26.67902 34279 ft 464 kts 288°
2026-04-22 18:34 64.67842 -26.75141 34524 ft 464 kts 288°
2026-04-22 18:34 64.68746 -26.82379 34763 ft 464 kts 288°
2026-04-22 18:34 64.69642 -26.89592 35048 ft 461 kts 288°
2026-04-22 18:35 64.70489 -26.96797 35321 ft 459 kts 286°
2026-04-22 18:35 64.71235 -27.04067 35495 ft 460 kts 284°
2026-04-22 18:35 64.71929 -27.11381 35668 ft 461 kts 284°
2026-04-22 18:35 64.72604 -27.18713 35826 ft 461 kts 284°
2026-04-22 18:36 64.73275 -27.26036 36096 ft 459 kts 284°
2026-04-22 18:36 64.73945 -27.33312 36383 ft 456 kts 284°
2026-04-22 18:36 64.74617 -27.40567 36468 ft 458 kts 284°
2026-04-22 18:37 64.75980 -27.55209 36463 ft 460 kts 284°
2026-04-22 18:37 64.77325 -27.69727 36458 ft 458 kts 284°
2026-04-22 18:38 64.78656 -27.84269 36460 ft 455 kts 284°
2026-04-22 18:38 64.79968 -27.98770 36459 ft 454 kts 284°
2026-04-22 18:39 64.81902 -28.20466 36456 ft 452 kts 284°
2026-04-22 18:39 64.83171 -28.34908 36455 ft 451 kts 284°
2026-04-22 18:40 64.84423 -28.49349 36444 ft 451 kts 284°
2026-04-22 18:40 64.85664 -28.63823 36446 ft 452 kts 284°
2026-04-22 18:41 64.86893 -28.78339 36447 ft 453 kts 284°
2026-04-22 18:41 64.88110 -28.92891 36431 ft 454 kts 285°
2026-04-22 18:42 64.89316 -29.07505 36438 ft 455 kts 285°
2026-04-22 18:42 64.90510 -29.22151 36435 ft 456 kts 284°
2026-04-22 18:43 64.91692 -29.36841 36431 ft 457 kts 284°
2026-04-22 18:43 64.92853 -29.51478 36427 ft 457 kts 284°
2026-04-22 18:44 64.94008 -29.66223 36427 ft 457 kts 284°
2026-04-22 18:44 64.95148 -29.80973 36434 ft 457 kts 284°
2026-04-22 18:45 64.96273 -29.95737 36419 ft 457 kts 284°
2026-04-22 18:45 64.97380 -30.10474 36423 ft 455 kts 284°
2026-04-22 18:46 64.98472 -30.25202 36417 ft 455 kts 284°
2026-04-22 18:46 64.99547 -30.39904 36419 ft 454 kts 284°
2026-04-22 18:47 65.00604 -30.54587 36419 ft 453 kts 284°
2026-04-22 18:47 65.01646 -30.69250 36419 ft 452 kts 284°
2026-04-22 18:48 65.02671 -30.83900 36384 ft 451 kts 284°
2026-04-22 18:48 65.03679 -30.98525 36405 ft 450 kts 284°
2026-04-22 18:49 65.04672 -31.13145 36414 ft 449 kts 284°
2026-04-22 18:49 65.05650 -31.27758 36416 ft 449 kts 284°
2026-04-22 18:50 65.06613 -31.42381 36405 ft 449 kts 284°
2026-04-22 18:50 65.07563 -31.57027 36407 ft 450 kts 284°
2026-04-22 18:51 65.08499 -31.71686 36406 ft 450 kts 284°
2026-04-22 18:51 65.09422 -31.86391 36396 ft 450 kts 283°
2026-04-22 18:52 65.10331 -32.01104 36399 ft 451 kts 283°
2026-04-22 18:52 65.11225 -32.15825 36381 ft 450 kts 283°
2026-04-22 18:53 65.12104 -32.30542 36376 ft 450 kts 282°
2026-04-22 18:53 65.12961 -32.45136 36386 ft 449 kts 282°
2026-04-22 18:54 65.13814 -32.59927 36394 ft 448 kts 282°
2026-04-22 18:54 65.14639 -32.74489 36383 ft 447 kts 282°
2026-04-22 18:55 65.15455 -32.89132 36382 ft 447 kts 282°
2026-04-22 18:55 65.16255 -33.03759 36388 ft 446 kts 282°
2026-04-22 18:56 65.17039 -33.18378 36384 ft 445 kts 282°
2026-04-22 18:56 65.17809 -33.32992 36364 ft 444 kts 281°
2026-04-22 18:57 65.18561 -33.47554 36367 ft 443 kts 281°
2026-04-22 18:57 65.19297 -33.62088 36370 ft 442 kts 281°
2026-04-22 18:58 65.20018 -33.76603 36379 ft 440 kts 281°
2026-04-22 18:58 65.20723 -33.91082 36368 ft 439 kts 281°
2026-04-22 18:59 65.21413 -34.05538 36369 ft 439 kts 281°
2026-04-22 18:59 65.22088 -34.19986 36375 ft 438 kts 281°
2026-04-22 19:00 65.22749 -34.34433 36357 ft 438 kts 280°
2026-04-22 19:00 65.23395 -34.48865 36364 ft 438 kts 280°
2026-04-22 19:01 65.24028 -34.63315 36375 ft 438 kts 279°
2026-04-22 19:01 65.24646 -34.77772 36367 ft 438 kts 279°
2026-04-22 19:02 65.25251 -34.92221 36355 ft 437 kts 279°
2026-04-22 19:02 65.25841 -35.06653 36367 ft 437 kts 279°
2026-04-22 19:03 65.26323 -35.18674 36366 ft 437 kts 279°
2026-04-22 19:03 65.26832 -35.33133 36354 ft 438 kts 276°
2026-04-22 19:04 65.27025 -35.47668 36369 ft 438 kts 274°
2026-04-22 19:04 65.27136 -35.62203 36363 ft 438 kts 274°
2026-04-22 19:05 65.27256 -35.76731 36366 ft 437 kts 274°
2026-04-22 19:05 65.27383 -35.91232 36352 ft 436 kts 274°
2026-04-22 19:06 65.27504 -36.05692 36346 ft 435 kts 273°
2026-04-22 19:07 65.27661 -36.27303 36368 ft 433 kts 273°
2026-04-22 19:07 65.27747 -36.41669 36355 ft 432 kts 273°
2026-04-22 19:08 65.27819 -36.56013 36359 ft 431 kts 274°
2026-04-22 19:08 65.27878 -36.70226 36365 ft 431 kts 272°
2026-04-22 19:09 65.27923 -36.84518 36374 ft 430 kts 273°
2026-04-22 19:09 65.27955 -36.98803 36362 ft 430 kts 272°
2026-04-22 19:10 65.27973 -37.13100 36380 ft 431 kts 272°
2026-04-22 19:10 65.27978 -37.27421 36374 ft 431 kts 271°
2026-04-22 19:11 65.27969 -37.41740 36375 ft 431 kts 271°
2026-04-22 19:11 65.27946 -37.56076 36388 ft 431 kts 271°
2026-04-22 19:12 65.27909 -37.70427 36370 ft 432 kts 270°
2026-04-22 19:12 65.27859 -37.84765 36379 ft 432 kts 270°
2026-04-22 19:13 65.27795 -37.99094 36377 ft 431 kts 270°
2026-04-22 19:13 65.27718 -38.13414 36377 ft 431 kts 270°
2026-04-22 19:14 65.27628 -38.27719 36373 ft 431 kts 270°
2026-04-22 19:14 65.27523 -38.42026 36377 ft 430 kts 270°
2026-04-22 19:15 65.27427 -38.53892 36376 ft 430 kts 270°
2026-04-22 19:15 65.27275 -38.70551 36376 ft 429 kts 269°
2026-04-22 19:16 65.27131 -38.84761 36369 ft 427 kts 269°
2026-04-22 19:16 65.26974 -38.98922 36369 ft 426 kts 269°
2026-04-22 19:17 65.26805 -39.13041 36365 ft 424 kts 268°
2026-04-22 19:17 65.26623 -39.27102 36366 ft 423 kts 268°
2026-04-22 19:18 65.26430 -39.41033 36366 ft 422 kts 268°
2026-04-22 19:18 65.26221 -39.55136 36367 ft 422 kts 268°
2026-04-22 19:19 65.26002 -39.69014 36364 ft 422 kts 268°
2026-04-22 19:19 65.25769 -39.83007 36363 ft 422 kts 268°
2026-04-22 19:20 65.25523 -39.96991 36373 ft 422 kts 267°
2026-04-22 19:20 65.25268 -40.10968 36357 ft 422 kts 267°
2026-04-22 19:21 65.25002 -40.24936 36352 ft 420 kts 267°
2026-04-22 19:21 65.24713 -40.38839 36353 ft 419 kts 266°
2026-04-22 19:22 65.24415 -40.52696 36353 ft 418 kts 266°
2026-04-22 19:22 65.24107 -40.66507 36364 ft 417 kts 266°
2026-04-22 19:23 65.23788 -40.80290 36351 ft 416 kts 266°
2026-04-22 19:23 65.23456 -40.94044 36353 ft 415 kts 266°
2026-04-22 19:24 65.23114 -41.07751 36350 ft 414 kts 266°
2026-04-22 19:24 65.22759 -41.21435 36357 ft 414 kts 266°
2026-04-22 19:25 65.22393 -41.35112 36373 ft 413 kts 265°
2026-04-22 19:25 65.22017 -41.48666 36356 ft 412 kts 265°
2026-04-22 19:26 65.21627 -41.62285 36336 ft 411 kts 265°
2026-04-22 19:26 65.21226 -41.75845 36338 ft 410 kts 264°
2026-04-22 19:27 65.20814 -41.89355 36336 ft 408 kts 264°
2026-04-22 19:27 65.20391 -42.02834 36337 ft 407 kts 264°
2026-04-22 19:28 65.19958 -42.16255 36304 ft 406 kts 264°
2026-04-22 19:28 65.19513 -42.29677 36304 ft 406 kts 264°
2026-04-22 19:29 65.19056 -42.43073 36304 ft 406 kts 264°
2026-04-22 19:29 65.18587 -42.56481 36273 ft 406 kts 264°
2026-04-22 19:30 65.18189 -42.67616 36277 ft 407 kts 263°
2026-04-22 19:30 65.17613 -42.83302 36274 ft 407 kts 263°
2026-04-22 19:31 65.17107 -42.96730 36249 ft 408 kts 263°
2026-04-22 19:31 65.16588 -43.10177 36248 ft 408 kts 263°
2026-04-22 19:32 65.16060 -43.23532 36246 ft 408 kts 263°
2026-04-22 19:32 65.15517 -43.36975 36238 ft 409 kts 262°
2026-04-22 19:33 65.14962 -43.50421 36241 ft 409 kts 262°
2026-04-22 19:33 65.14398 -43.63855 36239 ft 409 kts 262°
2026-04-22 19:34 65.13836 -43.77304 36246 ft 409 kts 263°
2026-04-22 19:34 65.13439 -43.90778 36242 ft 409 kts 264°
2026-04-22 19:35 65.13076 -44.04250 36275 ft 409 kts 263°
2026-04-22 19:35 65.12754 -44.15522 36265 ft 407 kts 263°
2026-04-22 19:36 65.12281 -44.31060 36254 ft 404 kts 262°
2026-04-22 19:36 65.11858 -44.44327 36239 ft 402 kts 262°
2026-04-22 19:37 65.11425 -44.57508 36256 ft 399 kts 262°
2026-04-22 19:37 65.10982 -44.70612 36270 ft 397 kts 262°
2026-04-22 19:38 65.10529 -44.83672 36264 ft 396 kts 262°
2026-04-22 19:38 65.10066 -44.96701 36281 ft 396 kts 261°
2026-04-22 19:39 65.09592 -45.09730 36274 ft 397 kts 261°
2026-04-22 19:39 65.09108 -45.22705 36260 ft 398 kts 261°
2026-04-22 19:40 65.08607 -45.35821 36290 ft 400 kts 260°
2026-04-22 19:40 65.08093 -45.48977 36279 ft 401 kts 260°
2026-04-22 19:41 65.07567 -45.62159 36262 ft 402 kts 260°
2026-04-22 19:41 65.07025 -45.75429 36262 ft 402 kts 260°
2026-04-22 19:42 65.06476 -45.88596 36280 ft 401 kts 259°
2026-04-22 19:42 65.05920 -46.01660 36262 ft 400 kts 259°
2026-04-22 19:43 65.05063 -46.21255 36257 ft 397 kts 259°
2026-04-22 19:43 65.04481 -46.34237 36259 ft 396 kts 259°
2026-04-22 19:44 65.03890 -46.47155 36257 ft 394 kts 259°
2026-04-22 19:44 65.03290 -46.60031 36294 ft 393 kts 258°
2026-04-22 19:45 65.02680 -46.72872 36260 ft 392 kts 258°
2026-04-22 19:45 65.02060 -46.85686 36248 ft 392 kts 258°
2026-04-22 19:46 65.01430 -46.98475 36247 ft 391 kts 258°
2026-04-22 19:46 65.00791 -47.11231 36234 ft 385 kts 257°
2026-04-22 19:47 65.00170 -47.23529 35918 ft 369 kts 257°
2026-04-22 19:47 64.99968 -47.27482 35749 ft 364 kts 257°
2026-04-22 19:47 64.99557 -47.35393 35277 ft 359 kts 257°
2026-04-22 19:48 64.99250 -47.41234 34895 ft 357 kts 257°
2026-04-22 19:48 64.98942 -47.47032 34546 ft 354 kts 257°
2026-04-22 19:48 64.98635 -47.52782 34185 ft 352 kts 257°
2026-04-22 19:48 64.98327 -47.58508 33771 ft 350 kts 257°
2026-04-22 19:49 64.98020 -47.64180 33389 ft 347 kts 257°
2026-04-22 19:49 64.97714 -47.69804 33030 ft 344 kts 256°
2026-04-22 19:49 64.97409 -47.75381 32673 ft 341 kts 256°
2026-04-22 19:49 64.97103 -47.80913 32321 ft 339 kts 256°
2026-04-22 19:50 64.96799 -47.86401 32026 ft 336 kts 256°
2026-04-22 19:50 64.96493 -47.91859 31678 ft 334 kts 255°
2026-04-22 19:50 64.96188 -47.97273 31339 ft 332 kts 255°
2026-04-22 19:50 64.95883 -48.02646 30996 ft 330 kts 255°
2026-04-22 19:51 64.95577 -48.08006 30666 ft 328 kts 255°
2026-04-22 19:51 64.95272 -48.13325 30337 ft 326 kts 255°
2026-04-22 19:51 64.94966 -48.18614 29956 ft 324 kts 254°
2026-04-22 19:51 64.94661 -48.23864 29585 ft 322 kts 254°
2026-04-22 19:52 64.94358 -48.29058 29262 ft 318 kts 254°
2026-04-22 19:52 64.94157 -48.32474 29021 ft 316 kts 254°
2026-04-22 19:52 64.93755 -48.39282 28603 ft 311 kts 254°
2026-04-22 19:52 64.93556 -48.42631 28365 ft 310 kts 253°
2026-04-22 19:53 64.93256 -48.47641 28027 ft 307 kts 253°
2026-04-22 19:53 64.92957 -48.52604 27710 ft 304 kts 253°
2026-04-22 19:53 64.92659 -48.57526 27396 ft 303 kts 253°
2026-04-22 19:53 64.92263 -48.64016 26984 ft 301 kts 253°
2026-04-22 19:54 64.91961 -48.68910 26679 ft 304 kts 253°
2026-04-22 19:54 64.91749 -48.72282 26474 ft 312 kts 253°
2026-04-22 19:54 64.91427 -48.77405 26151 ft 318 kts 253°
2026-04-22 19:54 64.91105 -48.82560 25799 ft 317 kts 253°
2026-04-22 19:55 64.90791 -48.87623 25464 ft 316 kts 253°
2026-04-22 19:55 64.90473 -48.92719 25131 ft 314 kts 253°
2026-04-22 19:55 64.90154 -48.97786 24821 ft 312 kts 252°
2026-04-22 19:55 64.89835 -49.02819 24496 ft 310 kts 252°
2026-04-22 19:56 64.89515 -49.07825 24161 ft 309 kts 252°
2026-04-22 19:56 64.89194 -49.12810 23893 ft 307 kts 251°
2026-04-22 19:56 64.88873 -49.17779 23472 ft 307 kts 251°
2026-04-22 19:56 64.88551 -49.22722 23127 ft 304 kts 251°
2026-04-22 19:57 64.88231 -49.27632 22808 ft 301 kts 251°
2026-04-22 19:57 64.87913 -49.32476 22471 ft 299 kts 250°
2026-04-22 19:57 64.87595 -49.37291 22166 ft 296 kts 250°
2026-04-22 19:57 64.87279 -49.42049 21835 ft 293 kts 250°
2026-04-22 19:58 64.86965 -49.46766 21531 ft 291 kts 250°
2026-04-22 19:58 64.86651 -49.51442 21225 ft 288 kts 250°
2026-04-22 19:58 64.86338 -49.56079 20923 ft 286 kts 250°
2026-04-22 19:58 64.86025 -49.60692 20621 ft 284 kts 250°
2026-04-22 19:59 64.85713 -49.65262 20324 ft 282 kts 250°
2026-04-22 20:00 64.83850 -49.92194 18607 ft 276 kts 250°
2026-04-22 20:00 64.83537 -49.96637 18282 ft 276 kts 250°
2026-04-22 20:01 64.83120 -50.00959 17992 ft 265 kts 240°
2026-04-22 20:01 64.82390 -50.04875 17630 ft 261 kts 236°
2026-04-22 20:01 64.81615 -50.08706 17322 ft 259 kts 236°
2026-04-22 20:01 64.80840 -50.12503 17045 ft 257 kts 235°
2026-04-22 20:02 64.80071 -50.16276 16759 ft 255 kts 235°
2026-04-22 20:02 64.79311 -50.20015 16513 ft 253 kts 235°
2026-04-22 20:02 64.78556 -50.23729 16234 ft 252 kts 236°
2026-04-22 20:02 64.77804 -50.27432 15954 ft 252 kts 235°
2026-04-22 20:03 64.77054 -50.31126 15673 ft 250 kts 235°
2026-04-22 20:03 64.76308 -50.34803 15430 ft 249 kts 235°
2026-04-22 20:03 64.75566 -50.38452 15150 ft 248 kts 235°
2026-04-22 20:03 64.74822 -50.42103 14877 ft 248 kts 235°
2026-04-22 20:04 64.74083 -50.45737 14620 ft 247 kts 235°
2026-04-22 20:04 64.73350 -50.49322 14340 ft 248 kts 235°
2026-04-22 20:04 64.72608 -50.52953 14074 ft 247 kts 235°
2026-04-22 20:04 64.71870 -50.56560 13791 ft 245 kts 235°
2026-04-22 20:05 64.71135 -50.60148 13522 ft 244 kts 235°
2026-04-22 20:05 64.70402 -50.63719 13238 ft 243 kts 235°
2026-04-22 20:05 64.69674 -50.67262 12971 ft 241 kts 235°
2026-04-22 20:05 64.68952 -50.70774 12711 ft 239 kts 234°
2026-04-22 20:06 64.68233 -50.74257 12438 ft 237 kts 234°
2026-04-22 20:06 64.67520 -50.77713 12177 ft 235 kts 234°
2026-04-22 20:06 64.66808 -50.81148 11931 ft 234 kts 234°
2026-04-22 20:06 64.66099 -50.84567 11656 ft 234 kts 234°
2026-04-22 20:07 64.65391 -50.87974 11395 ft 233 kts 234°
2026-04-22 20:07 64.64684 -50.91373 11128 ft 233 kts 234°
2026-04-22 20:07 64.63976 -50.94769 10879 ft 233 kts 234°
2026-04-22 20:07 64.63269 -50.98156 10634 ft 232 kts 234°
2026-04-22 20:08 64.62562 -51.01539 10372 ft 232 kts 234°
2026-04-22 20:08 64.61836 -51.04987 9828 ft 243 kts 234°
2026-04-22 20:08 64.61090 -51.08536 9515 ft 247 kts 234°
2026-04-22 20:08 64.60331 -51.12144 9180 ft 248 kts 234°
2026-04-22 20:09 64.59580 -51.15731 8911 ft 246 kts 234°
2026-04-22 20:09 64.58831 -51.19297 8622 ft 244 kts 234°
2026-04-22 20:09 64.58086 -51.22835 8350 ft 243 kts 234°
2026-04-22 20:09 64.57344 -51.26353 8063 ft 241 kts 233°
2026-04-22 20:10 64.56605 -51.29848 7784 ft 240 kts 233°
2026-04-22 20:10 64.55876 -51.33293 7669 ft 233 kts 233°
2026-04-22 20:10 64.55171 -51.36623 7536 ft 226 kts 232°
2026-04-22 20:10 64.54491 -51.39831 7502 ft 216 kts 232°
2026-04-22 20:11 64.53858 -51.42897 7485 ft 209 kts 237°
2026-04-22 20:11 64.53671 -51.46301 7464 ft 215 kts 257°
2026-04-22 20:11 64.53817 -51.49741 7529 ft 219 kts 265°
2026-04-22 20:11 64.54292 -51.53224 7498 ft 235 kts 285°
2026-04-22 20:12 64.55229 -51.56350 7507 ft 240 kts 294°
2026-04-22 20:12 64.56374 -51.59253 7486 ft 257 kts 315°
2026-04-22 20:12 64.58064 -51.60967 7518 ft 273 kts 341°
2026-04-22 20:12 64.59981 -51.61462 7496 ft 280 kts
2026-04-22 20:13 64.61858 -51.60508 7509 ft 275 kts 21°
2026-04-22 20:13 64.63527 -51.58529 7479 ft 263 kts 51°
2026-04-22 20:13 64.64599 -51.55327 7504 ft 243 kts 76°
2026-04-22 20:13 64.65135 -51.51771 7511 ft 224 kts 96°
2026-04-22 20:14 64.65179 -51.48304 7507 ft 206 kts 114°
2026-04-22 20:14 64.64814 -51.45217 7512 ft 191 kts 129°
2026-04-22 20:14 64.64143 -51.42673 7511 ft 179 kts 143°
2026-04-22 20:14 64.63252 -51.40736 7502 ft 172 kts 155°
2026-04-22 20:15 64.62225 -51.39445 7503 ft 166 kts 165°
2026-04-22 20:15 64.61151 -51.38609 7109 ft 164 kts 171°
2026-04-22 20:15 64.59936 -51.38186 7071 ft 196 kts 180°
2026-04-22 20:15 64.58485 -51.38756 7185 ft 227 kts 198°
2026-04-22 20:16 64.56966 -51.39886 7174 ft 228 kts 198°
2026-04-22 20:16 64.55466 -51.40948 7161 ft 223 kts 197°
2026-04-22 20:16 64.53950 -51.41980 6827 ft 233 kts 196°
2026-04-22 20:16 64.52379 -51.43058 6576 ft 234 kts 198°
2026-04-22 20:17 64.50868 -51.44203 6499 ft 221 kts 199°
2026-04-22 20:17 64.49456 -51.45338 6379 ft 209 kts 200°
2026-04-22 20:17 64.48128 -51.46430 6322 ft 196 kts 200°
2026-04-22 20:17 64.46854 -51.47480 6237 ft 194 kts 200°
2026-04-22 20:18 64.45565 -51.48392 6050 ft 194 kts 197°
2026-04-22 20:18 64.44294 -51.49334 5831 ft 196 kts 202°
2026-04-22 20:18 64.43021 -51.50581 5607 ft 197 kts 201°
2026-04-22 20:18 64.41747 -51.51449 5637 ft 185 kts 194°
2026-04-22 20:19 64.40528 -51.52076 5638 ft 178 kts 195°
2026-04-22 20:19 64.39335 -51.52804 5533 ft 177 kts 197°
2026-04-22 20:19 64.38151 -51.53623 5470 ft 178 kts 199°
2026-04-22 20:19 64.36988 -51.54554 5455 ft 178 kts 200°
2026-04-22 20:20 64.35801 -51.55562 5442 ft 184 kts 201°
2026-04-22 20:20 64.34579 -51.56484 5583 ft 185 kts 198°
2026-04-22 20:20 64.33348 -51.57335 5734 ft 186 kts 197°
2026-04-22 20:20 64.32112 -51.58228 5886 ft 186 kts 199°
2026-04-22 20:21 64.30898 -51.59205 6079 ft 184 kts 200°
2026-04-22 20:21 64.29701 -51.60244 6214 ft 185 kts 203°
2026-04-22 20:21 64.28473 -51.61221 6285 ft 190 kts 193°
2026-04-22 20:21 64.27155 -51.61870 6307 ft 197 kts 193°
2026-04-22 20:22 64.25816 -51.62632 6389 ft 199 kts 195°
2026-04-22 20:22 64.24487 -51.63502 6544 ft 197 kts 198°
2026-04-22 20:22 64.23185 -51.64492 6659 ft 198 kts 200°
2026-04-22 20:22 64.21877 -51.65601 6715 ft 201 kts 201°
2026-04-22 20:23 64.20582 -51.66774 6882 ft 199 kts 203°
2026-04-22 20:23 64.19296 -51.68032 6924 ft 204 kts 204°
2026-04-22 20:23 64.17988 -51.69341 6993 ft 205 kts 204°
2026-04-22 20:23 64.16685 -51.70698 7052 ft 207 kts 206°
2026-04-22 20:24 64.15409 -51.72214 7186 ft 205 kts 210°
2026-04-22 20:24 64.14227 -51.73926 7394 ft 199 kts 216°
2026-04-22 20:24 64.13352 -51.76419 7268 ft 208 kts 254°
2026-04-22 20:24 64.13469 -51.79673 7235 ft 212 kts 298°
2026-04-22 20:25 64.14531 -51.81983 7233 ft 215 kts 326°
2026-04-22 20:25 64.15636 -51.84355 7184 ft 222 kts 309°
2026-04-22 20:25 64.16633 -51.87119 7175 ft 229 kts 310°
2026-04-22 20:25 64.17659 -51.89924 7160 ft 237 kts 309°
2026-04-22 20:26 64.18743 -51.92946 7167 ft 248 kts 309°
2026-04-22 20:26 64.19832 -51.96048 7190 ft 258 kts 308°
2026-04-22 20:26 64.20972 -51.99345 7197 ft 269 kts 308°
2026-04-22 20:26 64.22149 -52.02787 7195 ft 279 kts 308°
2026-04-22 20:27 64.23461 -52.06154 7161 ft 289 kts 324°
2026-04-22 20:27 64.25341 -52.07760 7188 ft 296 kts 356°
2026-04-22 20:27 64.27371 -52.06895 7194 ft 301 kts 24°
2026-04-22 20:27 64.29103 -52.04336 7167 ft 292 kts 42°
2026-04-22 20:28 64.30515 -52.01129 7157 ft 279 kts 45°
2026-04-22 20:28 64.31836 -51.97977 7150 ft 267 kts 46°
2026-04-22 20:28 64.33100 -51.94964 7159 ft 256 kts 45°
2026-04-22 20:28 64.34313 -51.92097 7157 ft 244 kts 45°
2026-04-22 20:29 64.35475 -51.89371 7153 ft 232 kts 45°
2026-04-22 20:29 64.36584 -51.86748 7154 ft 226 kts 46°
2026-04-22 20:29 64.37665 -51.84159 7173 ft 223 kts 45°
2026-04-22 20:29 64.38763 -51.81576 7117 ft 227 kts 45°
2026-04-22 20:30 64.39883 -51.78979 6976 ft 228 kts 44°
2026-04-22 20:30 64.41005 -51.76398 6839 ft 227 kts 44°
2026-04-22 20:30 64.42121 -51.73836 6701 ft 225 kts 44°
2026-04-22 20:30 64.43221 -51.71313 6604 ft 220 kts 44°
2026-04-22 20:31 64.44246 -51.68758 6457 ft 215 kts 57°
2026-04-22 20:31 64.44630 -51.65468 6318 ft 216 kts 95°
2026-04-22 20:31 64.44118 -51.62241 6190 ft 217 kts 129°
2026-04-22 20:31 64.42915 -51.60215 6053 ft 216 kts 163°
2026-04-22 20:32 64.41438 -51.60114 5913 ft 215 kts 199°
2026-04-22 20:32 64.40172 -51.61870 5798 ft 214 kts 223°
2026-04-22 20:32 64.39102 -51.64268 5664 ft 215 kts 225°
2026-04-22 20:32 64.38029 -51.66677 5529 ft 215 kts 225°
2026-04-22 20:33 64.36955 -51.69084 5387 ft 215 kts 224°
2026-04-22 20:33 64.35889 -51.71493 5244 ft 214 kts 229°
2026-04-22 20:33 64.35256 -51.74487 5095 ft 208 kts 265°
2026-04-22 20:33 64.35502 -51.77693 5077 ft 204 kts 297°
2026-04-22 20:34 64.36412 -51.80050 5050 ft 192 kts 328°
2026-04-22 20:34 64.37636 -51.80917 5055 ft 181 kts 359°
2026-04-22 20:34 64.38853 -51.80373 5073 ft 179 kts 24°
2026-04-22 20:34 64.39864 -51.78710 5085 ft 180 kts 44°
2026-04-22 20:35 64.40776 -51.76686 5085 ft 183 kts 43°
2026-04-22 20:35 64.41703 -51.74634 5086 ft 186 kts 43°
2026-04-22 20:35 64.42635 -51.72563 5078 ft 185 kts 43°
2026-04-22 20:35 64.43551 -51.70524 5053 ft 181 kts 43°
2026-04-22 20:36 64.44244 -51.68175 5054 ft 180 kts 82°
2026-04-22 20:36 64.43970 -51.65294 5095 ft 189 kts 121°
2026-04-22 20:36 64.43354 -51.62680 5069 ft 182 kts 116°
2026-04-22 20:36 64.42846 -51.60028 4857 ft 185 kts 112°
2026-04-22 20:37 64.42392 -51.57298 4633 ft 179 kts 114°
2026-04-22 20:37 64.41579 -51.55146 4371 ft 176 kts 145°
2026-04-22 20:37 64.40499 -51.53810 4155 ft 177 kts 163°
2026-04-22 20:37 64.39284 -51.53373 3971 ft 180 kts 183°
2026-04-22 20:38 64.38098 -51.54032 3693 ft 174 kts 198°
2026-04-22 20:38 64.36982 -51.54833 3402 ft 162 kts 198°
2026-04-22 20:38 64.35945 -51.55579 3164 ft 154 kts 198°
2026-04-22 20:38 64.34950 -51.56297 2865 ft 146 kts 198°
2026-04-22 20:39 64.33991 -51.56896 2718 ft 141 kts 197°
2026-04-22 20:39 64.33053 -51.57539 2682 ft 141 kts 198°
2026-04-22 20:39 64.32126 -51.58209 2676 ft 139 kts 199°
2026-04-22 20:39 64.31212 -51.58884 2669 ft 137 kts 199°
2026-04-22 20:40 64.30281 -51.59612 2478 ft 149 kts 201°
2026-04-22 20:40 64.29266 -51.60500 2150 ft 159 kts 202°
2026-04-22 20:40 64.28253 -51.61341 1691 ft 152 kts 201°
2026-04-22 20:40 64.27321 -51.62079 1488 ft 131 kts 198°
2026-04-22 20:41 64.26472 -51.62551 1269 ft 123 kts 192°
2026-04-22 20:41 64.25637 -51.62911 1111 ft 128 kts 191°
2026-04-22 20:41 64.24713 -51.63297 1163 ft 138 kts 196°
2026-04-22 20:41 64.23803 -51.64078 1104 ft 144 kts 205°
2026-04-22 20:42 64.22840 -51.65000 965 ft 153 kts 203°
2026-04-22 20:42 64.21865 -51.65866 755 ft 144 kts 199°
2026-04-22 20:42 64.20957 -51.66528 534 ft 131 kts 200°
2026-04-22 20:42 64.20105 -51.67163 337 ft 126 kts 199°
2026-04-22 20:43 64.19339 -51.67741 286 ft 93 kts 198°
2026-04-22 20:43 64.18931 -51.68045 288 ft 31 kts 198°
2026-04-22 20:43 64.18840 -51.68114 288 ft 24 kts 198°
2026-04-22 20:43 64.18700 -51.68206 288 ft 13 kts 176°
2026-04-22 20:44 64.18652 -51.68127 290 ft 0 kts 122°
2026-04-22 20:44 64.18651 -51.68121 290 ft 1 kts 122°
2026-04-22 20:44 64.18641 -51.68079 289 ft 8 kts 116°
2026-04-22 20:44 64.18589 -51.67948 287 ft 11 kts 156°
2026-04-22 20:45 64.18510 -51.67979 287 ft 11 kts 197°
2026-04-22 20:45 64.18458 -51.67975 290 ft 8 kts 149°
2026-04-22 20:45 64.18426 -51.67918 287 ft 0 kts 140°
2026-04-22 20:45 64.18424 -51.67915 287 ft 1 kts 139°
2026-04-22 20:46 64.18424 -51.67914 287 ft 0 kts 139°